{"data":{"norad_id":67724,"epoch":"2026-05-25T02:31:01.238880Z","epoch_age_seconds":69944,"freshness":"FRESH","line1":"1 67724U 26026D   26145.10487545  .00051236  00000+0  15748-2 0  9997","line2":"2 67724  97.2862 198.5835 0000893 127.3172 232.8152 15.33521916 15830","mean_motion":15.33521916,"eccentricity":8.93e-5,"inclination_deg":97.2862,"raan_deg":198.5835,"arg_perigee_deg":127.3172,"mean_anomaly_deg":232.8152,"bstar":0.0015748,"rev_number":1583,"period_min":93.901494655913,"perigee_km":464.70321593804,"apogee_km":465.92545634668,"semimajor_km":6843.4513361424,"source":"CELESTRAK","updated_at":"2026-05-25T13:38:21.685417Z"}}